Flag for Germany Weather past 2 weeks in Höxter, North Rhine-Westphalia, Germany

Now
73 °F

Passing clouds.


Feels Like: 76 °F
Forecast: 56 / 89 °F
Wind: 3 mph from East

Location: Bad Lippspringe

Current Time: Aug 29, 2015 at 4:47:06 PM

Latest Report: Aug 29, 2015 at 4:00 PM


Visibility: 22 mi

Pressure: 30.17 "Hg

Humidity: 60%

Dew point: 58 °F

Location of HöxterLocation

Historic Weather in Höxter — Graph

°F

Höxter temperature yesterday

Maximum temperature yesterday: 68 °F (at 6:00 PM)
Minimum temperature yesterday: 54 °F (at 11:00 PM)
Average temperature yesterday: 60 °F

Past Weeks' High & Low Weather Summary

 TemperatureHumidityPressure
High80 °F (Aug 14, 4:00 PM)100% (Aug 14, 10:00 PM)30.27 "Hg (Aug 14, 10:00 PM)
Low49 °F (Aug 29, 6:00 AM)34% (Aug 22, 3:00 PM)29.59 "Hg (Aug 24, 6:00 PM)
Average64 °F75%29.96 "Hg
* Reported Aug 14 4:00 PM — Aug 29 4:00 PM, Höxter, Weather by CustomWeather, © 2015

Note: Actual official high and low records may vary slightly from our data, if they occured in-between our weather recording intervals... More about our weather records

Advertising

Höxter weather history for previous 24 hours

 ConditionsComfort  
Time TempWeatherWind HumidityBarometerVisibility
4:00 PM
Sat, Aug 29
73 °FPassing clouds.3 mph60%30.17 "Hg22 mi
3:00 PM72 °FPartly sunny.3 mph55%30.18 "Hg17 mi
2:00 PM71 °FPassing clouds.2 mph59%30.20 "Hg22 mi
1:00 PM70 °FSunny.3 mph59%30.22 "Hg14 mi
12:00 PM69 °FSunny.3 mph61%30.23 "Hg11 mi
11:00 AM68 °FSunny.3 mph68%30.23 "Hg9 mi
10:00 AM66 °FSunny.2 mph65%30.24 "Hg19 mi
9:00 AM64 °FPassing clouds.1 mph75%30.24 "Hg13 mi
7:00 AM50 °FSunny.1 mph100%30.23 "Hg2 mi
6:00 AM49 °FClear.1 mph100%30.24 "Hg1 mi
5:00 AM50 °FFog.1 mph100%30.23 "Hg3 mi
4:00 AM51 °FClear.1 mph100%30.22 "Hg2 mi
3:00 AM52 °FFog.1 mph99%30.22 "Hg4 mi
2:00 AM51 °FPassing clouds.1 mph99%30.21 "Hg8 mi
1:00 AM52 °FFog.1 mph99%30.21 "Hg4 mi
11:00 PM
Fri, Aug 28
54 °FFog.1 mph97%30.19 "Hg2 mi
10:00 PM55 °FClear.1 mph97%30.16 "Hg5 mi
9:00 PM58 °FClear.1 mph89%30.14 "Hg14 mi
8:00 PM64 °FSunny.1 mph69%30.11 "Hg25 mi
7:00 PM67 °FPassing clouds.3 mph62%30.10 "Hg22 mi
6:00 PM68 °FPassing clouds.2 mph58%30.09 "Hg18 mi
5:00 PM67 °FPartly sunny.3 mph59%30.09 "Hg19 mi
4:00 PM66 °FScattered clouds.5 mph63%30.09 "Hg28 mi
Weather by CustomWeather, © 2015

See weather overviewHow to use our weather pages